Weather History for Lexington, KY

Change the Weather History Date:

Saturday, June 15, 2013

  Actual Average Record
Temperature  
Mean Temperature 72 °F 73 °F  
Max Temperature 84 °F 83 °F 97 °F (1952)
Min Temperature 59 °F 63 °F 45 °F (1917)
Degree Days  
Heating Degree Days 0 0  
Month to date heating degree days 0 8  
Since 1 June heating degree days 0 8  
Since 1 July heating degree days 4667 4608  
Cooling Degree Days 7 8  
Month to date cooling degree days 106 97  
Year to date cooling degree days 259 204  
Since 1 June cooling degree days 106 97  
Growing Degree Days 22 (Base 50)    
Moisture  
Dew Point 59 °F    
Average Humidity 65    
Maximum Humidity 90    
Minimum Humidity 40    
Precipitation  
Precipitation 0.00 in 0.15 in 2.59 in (1949)
Month to date precipitation 2.66 2.39  
Year to date precipitation 24.52 21.72  
Snow  
Snow 0.00 in 0.00 in - ()
Month to date snowfall 0.0 0.0  
Since 1 June snowfall 0.0 0.0  
Since 1 July snowfall 12.5 13.0  
Snow Depth 0.00 in    
Sea Level Pressure  
Sea Level Pressure 30.06 in    
Wind  
Wind Speed 5 mph (South)    
Max Wind Speed 13 mph    
Max Gust Speed 17 mph    
Visibility 10 miles    
Events      
T = Trace of Precipitation, MM = Missing Value Source: NWS Daily Summary

Daily Weather History Graph

Daily Weather History Graph

Search for Another Location

Airport:

Trip Planner

Search our weather history database for the weather conditions in past years. The results will help you decide how hot, cold, wet, or windy it might be!

Date:

Astronomy

Jun. 15, 2013 Rise Set
Actual Time 6:15 AM EDT 9:02 PM EDT
Civil Twilight 5:43 AM EDT 9:34 PM EDT
Nautical Twilight 5:04 AM EDT 10:13 PM EDT
Astronomical Twilight 4:19 AM EDT 10:58 PM EDT
Moon 12:43 PM EDT (6/15) 12:43 AM EDT (6/15)
Length of Visible Light 15h 50m
Length of Day
14h 47m
Waxing Crescent, 39% of the Moon is Illuminated
Jun 15
Waxing Crescent
Jun 16
First Quarter
Jun 23
Full
Jun 30
Last Quarter
Jul 8
New

Hourly Weather History & Observations

Time (EDT) Temp. Heat Index Dew Point Humidity Pressure Visibility Wind Dir Wind Speed Gust Speed Precip Events Conditions
12:54 AM 64.0 °F - 59.0 °F 84% 30.04 in 10.0 mi ESE 3.5 mph - N/A   Clear
1:54 AM 62.1 °F - 59.0 °F 90% 30.06 in 10.0 mi Calm Calm - N/A   Clear
2:54 AM 64.9 °F - 57.0 °F 75% 30.05 in 10.0 mi ESE 5.8 mph - N/A   Clear
3:54 AM 60.1 °F - 57.0 °F 90% 30.07 in 10.0 mi Calm Calm - N/A   Clear
4:54 AM 64.0 °F - 57.9 °F 80% 30.08 in 10.0 mi Calm Calm - N/A   Clear
5:54 AM 62.1 °F - 57.0 °F 84% 30.08 in 10.0 mi SE 3.5 mph - N/A   Clear
6:54 AM 61.0 °F - 57.9 °F 90% 30.09 in 10.0 mi SE 4.6 mph - N/A   Clear
7:54 AM 66.0 °F - 60.1 °F 81% 30.11 in 10.0 mi Calm Calm - N/A   Clear
8:54 AM 71.1 °F - 61.0 °F 70% 30.12 in 10.0 mi SSE 4.6 mph - N/A   Clear
9:54 AM 75.0 °F - 62.1 °F 64% 30.12 in 10.0 mi South 4.6 mph - N/A   Clear
10:54 AM 78.1 °F - 60.1 °F 54% 30.11 in 10.0 mi SSW 4.6 mph - N/A   Clear
11:54 AM 79.0 °F - 57.9 °F 48% 30.11 in 10.0 mi Variable 6.9 mph - N/A   Clear
12:54 PM 81.0 °F 81.1 °F 57.9 °F 45% 30.09 in 10.0 mi SSE 4.6 mph - N/A   Clear
1:54 PM 82.0 °F 82.4 °F 60.1 °F 47% 30.06 in 10.0 mi South 11.5 mph 17.3 mph N/A   Partly Cloudy
2:54 PM 82.0 °F 82.1 °F 59.0 °F 45% 30.04 in 10.0 mi SSW 9.2 mph - N/A   Clear
3:54 PM 82.9 °F 82.6 °F 57.9 °F 42% 30.04 in 10.0 mi SSW 10.4 mph - N/A   Clear
4:54 PM 84.0 °F 83.3 °F 57.0 °F 40% 30.03 in 10.0 mi SW 11.5 mph - N/A   Clear
5:54 PM 84.0 °F 83.5 °F 57.9 °F 41% 30.03 in 10.0 mi WSW 6.9 mph - N/A   Clear
6:54 PM 82.9 °F 82.6 °F 57.9 °F 42% 30.02 in 10.0 mi SW 5.8 mph - N/A   Clear
7:54 PM 81.0 °F 81.7 °F 61.0 °F 50% 29.99 in 10.0 mi SSW 4.6 mph - N/A   Clear
8:54 PM 77.0 °F - 61.0 °F 58% 29.99 in 10.0 mi SSW 4.6 mph - N/A   Clear
9:54 PM 73.9 °F - 60.1 °F 62% 30.00 in 10.0 mi SSW 5.8 mph - N/A   Clear
10:54 PM 72.0 °F - 61.0 °F 68% 30.02 in 10.0 mi South 5.8 mph - N/A   Clear
11:54 PM 72.0 °F - 61.0 °F 68% 30.01 in 10.0 mi SSW 6.9 mph - N/A   Clear